Weather History for Bad Axe, MI

Change the Weather History Date:

Monday, May 27, 2013

  Actual Average (KP58) Record (KP58)
Temperature  
Mean Temperature 49 °F -  
Max Temperature 66 °F 58 °F 75 °F (2007)
Min Temperature 32 °F 45 °F 39 °F (2013)
Degree Days  
Heating Degree Days 16    
Moisture  
Dew Point 39 °F    
Average Humidity 67    
Maximum Humidity 100    
Minimum Humidity 36    
Precipitation  
Precipitation 0.00 in - - ()
Sea Level Pressure  
Sea Level Pressure 30.19 in    
Wind  
Wind Speed 3 mph (ESE)    
Max Wind Speed 9 mph    
Max Gust Speed 17 mph    
Visibility 10 miles    
Events      
Averages and records for this station are not official NWS values.
T = Trace of Precipitation, MM = Missing Value Source: NWS Daily Summary

Daily Weather History Graph

Daily Weather History Graph

Search for Another Location

Airport:

Trip Planner

Search our weather history database for the weather conditions in past years. The results will help you decide how hot, cold, wet, or windy it might be!

Date:

Astronomy

May. 27, 2013 Rise Set
Actual Time 5:55 AM EDT 9:03 PM EDT
Civil Twilight 5:21 AM EDT 9:37 PM EDT
Nautical Twilight 4:36 AM EDT 10:22 PM EDT
Astronomical Twilight 3:43 AM EDT 11:16 PM EDT
Moon 11:38 PM EDT (5/27) 8:33 AM EDT (5/27)
Length of Visible Light 16h 16m
Length of Day
15h 07m
Waning Gibbous, 91% of the Moon is Illuminated
May 27
Waning Gibbous
May 31
Last Quarter
Jun 8
New
Jun 16
First Quarter
Jun 23
Full

Hourly Weather History & Observations

Time (EDT) Temp. Dew Point Humidity Pressure Visibility Wind Dir Wind Speed Gust Speed Precip Events Conditions
12:14 AM 36.9 °F 35.1 °F 93% 30.28 in 10.0 mi Calm Calm - N/A   Clear
12:35 AM 36.7 °F 35.2 °F 95% 30.28 in 10.0 mi Calm Calm - N/A   Clear
12:54 AM 37.0 °F 35.6 °F 95% 30.29 in 10.0 mi Calm Calm - N/A   Clear
1:15 AM 35.8 °F 34.3 °F 94% 30.28 in 10.0 mi Calm Calm - N/A   Clear
1:35 AM 36.7 °F 35.8 °F 97% 30.27 in 10.0 mi Calm Calm - N/A   Clear
1:54 AM 34.5 °F 33.6 °F 97% 30.27 in 10.0 mi Calm Calm - N/A   Clear
2:15 AM 35.1 °F 34.7 °F 99% 30.27 in 10.0 mi Calm Calm - N/A   Clear
2:35 AM 34.9 °F 34.5 °F 99% 30.27 in 10.0 mi Calm Calm - N/A   Clear
2:54 AM 33.4 °F 33.1 °F 99% 30.27 in 10.0 mi Calm Calm - N/A   Clear
3:15 AM 33.8 °F 33.8 °F 100% 30.27 in 10.0 mi Calm Calm - N/A   Clear
3:35 AM 33.8 °F 33.8 °F 100% 30.26 in 10.0 mi Calm Calm - N/A   Clear
3:54 AM 34.3 °F 34.3 °F 100% 30.26 in 10.0 mi Calm Calm - N/A   Clear
4:15 AM 32.7 °F 32.7 °F 100% 30.25 in 10.0 mi Calm Calm - N/A   Clear
4:34 AM 33.1 °F 33.1 °F 100% 30.25 in 10.0 mi Calm Calm - N/A   Clear
4:55 AM 32.9 °F 32.9 °F 100% 30.25 in 10.0 mi Calm Calm - N/A   Clear
5:15 AM 32.0 °F 32.0 °F 100% 30.26 in 10.0 mi Calm Calm - N/A   Clear
5:34 AM 32.2 °F 32.2 °F 100% 30.26 in 10.0 mi Calm Calm - N/A   Clear
5:55 AM 32.4 °F 32.4 °F 100% 30.26 in 10.0 mi Calm Calm - N/A   Clear
6:15 AM 32.0 °F 32.0 °F 100% 30.27 in 10.0 mi Calm Calm - N/A   Clear
6:34 AM 33.4 °F 33.4 °F 100% 30.27 in 10.0 mi Calm Calm - N/A   Clear
6:55 AM 34.3 °F 34.3 °F 100% 30.27 in 10.0 mi Calm Calm - N/A   Clear
7:15 AM 38.1 °F 38.1 °F 100% 30.27 in 10.0 mi Calm Calm - N/A   Clear
7:34 AM 41.9 °F 40.3 °F 94% 30.28 in 10.0 mi Calm Calm - N/A   Clear
7:55 AM 45.5 °F 37.8 °F 74% 30.28 in 10.0 mi Calm Calm - N/A   Clear
8:15 AM 47.5 °F 38.1 °F 70% 30.28 in 10.0 mi Calm Calm - N/A   Clear
8:35 AM 48.9 °F 37.8 °F 65% 30.27 in 10.0 mi SE 3.5 mph - N/A   Clear
8:55 AM 50.2 °F 37.4 °F 62% 30.26 in 10.0 mi ESE 4.6 mph - N/A   Clear
9:15 AM 52.7 °F 39.0 °F 60% 30.26 in 10.0 mi ESE 4.6 mph - N/A   Clear
9:35 AM 53.8 °F 38.1 °F 55% 30.26 in 10.0 mi SE 5.8 mph - N/A   Clear
9:55 AM 54.5 °F 38.5 °F 55% 30.26 in 10.0 mi SE 6.9 mph - N/A   Clear
10:15 AM 55.4 °F 39.4 °F 55% 30.26 in 10.0 mi SE 5.8 mph - N/A   Clear
10:35 AM 56.3 °F 39.2 °F 53% 30.26 in 10.0 mi SSE 8.1 mph - N/A   Clear
10:55 AM 57.0 °F 39.9 °F 53% 30.25 in 10.0 mi SE 9.2 mph - N/A   Clear
11:15 AM 57.9 °F 39.6 °F 50% 30.25 in 10.0 mi SE 4.6 mph - N/A   Clear
11:35 AM 58.3 °F 39.9 °F 50% 30.24 in 10.0 mi ESE 6.9 mph - N/A   Clear
11:55 AM 59.5 °F 41.0 °F 50% 30.23 in 10.0 mi SE 9.2 mph - N/A   Clear
12:15 PM 60.4 °F 41.2 °F 49% 30.22 in 10.0 mi SE 5.8 mph - N/A   Clear
12:35 PM 61.2 °F 41.0 °F 47% 30.22 in 10.0 mi East 9.2 mph - N/A   Clear
12:55 PM 61.7 °F 41.2 °F 47% 30.21 in 10.0 mi SE 8.1 mph - N/A   Clear
1:15 PM 61.9 °F 41.4 °F 47% 30.20 in 10.0 mi ESE 9.2 mph - N/A   Clear
1:35 PM 62.6 °F 40.8 °F 45% 30.19 in 10.0 mi East 8.1 mph 16.1 mph N/A   Clear
1:55 PM 63.0 °F 41.0 °F 45% 30.18 in 10.0 mi ESE 9.2 mph - N/A   Clear
2:16 PM 63.5 °F 41.7 °F 45% 30.18 in 10.0 mi ESE 5.8 mph - N/A   Clear
2:35 PM 64.2 °F 41.9 °F 44% 30.18 in 10.0 mi ESE 9.2 mph - N/A   Clear
2:55 PM 64.8 °F 42.3 °F 44% 30.17 in 10.0 mi ESE 6.9 mph - N/A   Clear
3:15 PM 64.9 °F 41.2 °F 42% 30.17 in 10.0 mi ESE 9.2 mph 17.3 mph N/A   Clear
3:35 PM 64.8 °F 40.1 °F 40% 30.16 in 10.0 mi ESE 9.2 mph - N/A   Clear
3:55 PM 64.8 °F 41.5 °F 43% 30.15 in 10.0 mi ESE 6.9 mph - N/A   Clear
4:15 PM 65.7 °F 41.5 °F 41% 30.15 in 10.0 mi SE 6.9 mph - N/A   Clear
4:35 PM 65.8 °F 40.8 °F 40% 30.15 in 10.0 mi ESE 6.9 mph - N/A   Clear
4:55 PM 66.0 °F 41.4 °F 41% 30.13 in 10.0 mi East 8.1 mph 17.3 mph N/A   Clear
5:15 PM 65.8 °F 40.6 °F 40% 30.12 in 10.0 mi SE 5.8 mph - N/A   Clear
5:35 PM 65.7 °F 39.4 °F 38% 30.11 in 10.0 mi SE 5.8 mph - N/A   Clear
5:55 PM 66.2 °F 39.7 °F 38% 30.10 in 10.0 mi SE 5.8 mph - N/A   Clear
6:15 PM 65.7 °F 38.1 °F 36% 30.10 in 10.0 mi ESE 9.2 mph - N/A   Clear
6:35 PM 64.8 °F 38.8 °F 38% 30.09 in 10.0 mi SE 8.1 mph - N/A   Clear
6:56 PM 63.5 °F 38.5 °F 40% 30.08 in 10.0 mi SE 8.1 mph - N/A   Clear
7:15 PM 62.2 °F 37.9 °F 41% 30.08 in 10.0 mi SE 6.9 mph 17.3 mph N/A   Clear
7:35 PM 59.9 °F 38.8 °F 46% 30.09 in 10.0 mi East 8.1 mph - N/A   Clear
7:56 PM 57.4 °F 40.1 °F 53% 30.09 in 10.0 mi East 5.8 mph - N/A   Clear
8:15 PM 55.8 °F 41.0 °F 58% 30.08 in 10.0 mi East 5.8 mph - N/A   Clear
8:35 PM 55.0 °F 41.9 °F 61% 30.08 in 10.0 mi East 4.6 mph - N/A   Clear
8:56 PM 54.5 °F 42.8 °F 65% 30.08 in 10.0 mi East 3.5 mph - N/A   Mostly Cloudy
9:15 PM 54.0 °F 43.3 °F 67% 30.08 in 10.0 mi East 3.5 mph - N/A   Overcast
9:35 PM 53.8 °F 44.6 °F 71% 30.08 in 10.0 mi East 3.5 mph - N/A   Overcast
9:55 PM 54.0 °F 45.5 °F 73% 30.08 in 10.0 mi East 3.5 mph - N/A   Overcast
10:15 PM 55.2 °F 46.6 °F 73% 30.08 in 10.0 mi Calm Calm - N/A   Overcast
10:35 PM 55.9 °F 46.4 °F 70% 30.08 in 10.0 mi SE 4.6 mph - N/A   Overcast
10:55 PM 56.3 °F 44.8 °F 65% 30.09 in 10.0 mi SE 4.6 mph - N/A   Overcast
11:15 PM 56.3 °F 44.1 °F 64% 30.08 in 10.0 mi SE 5.8 mph - N/A   Overcast
11:35 PM 55.9 °F 43.9 °F 64% 30.07 in 10.0 mi SE 5.8 mph - N/A   Overcast
11:55 PM 55.6 °F 43.2 °F 63% 30.06 in 10.0 mi SE 4.6 mph - N/A   Overcast